Location: Ravensburg
(47.7866°N, 9.6124°E)
Time: 03:20:13
(UTC+02:00)

Gurwin Techsat 1B - Pass Details

Date: 18 March 2026
Orbit: 809 x 812 km, 99.0° (Epoch: 14 April)

Event Time Altitude Azimuth Distance (km) Brightness Sun altitude
Rises 05:33:15 0° 16° (NNE) 3,341 12.2 -10.1°
Reaches altitude 10° 05:35:36 10° 17° (NNE) 2,405 11.4 -9.8°
Maximum altitude 05:40:56 78° 104° (ESE) 832 8.8 -8.9°
Drops below altitude 10° 05:46:13 10° 191° (SSW) 2,387 10.9 -8.0°
Sets 05:48:33 0° 193° (SSW) 3,314 11.6 -7.6°
